AB8YS Weather Reports


Display with metric or nautical units.
time (UTC)temp
F
wind
direction
speed
MPH
gust
MPH
rain 1hr
in
rain 24hr
in
rain mn
in
humidity
%
barometer
mb
20260504201520 66 243 0.0 5.0 0.00 0.00 0.00 72 1007.3
20260504200019 65 270 0.0 3.0 0.00 0.00 0.00 74 1007.2
20260504194518 64 255 0.0 2.0 0.00 0.00 0.00 75 1007.3
20260504193017 64 254 0.0 0.0 0.00 0.00 0.00 78 1007.8
20260504191515 65 278 0.0 2.0 0.00 0.00 0.00 71 1008.2
20260504190014 69 264 0.0 3.0 0.00 0.00 0.00 60 1008.6
20260504184513 69 252 1.0 6.0 0.00 0.00 0.00 59 1008.0
20260504183014 70 269 1.0 5.0 0.00 0.00 0.00 59 1007.6
20260504181513 70 330 0.0 8.0 0.00 0.00 0.00 58 1007.5
20260504180011 70 217 2.0 6.0 0.00 0.00 0.00 58 1007.3
20260504174510 69 354 1.0 5.0 0.00 0.00 0.00 60 1007.3
20260504173008 70 265 1.0 9.0 0.00 0.00 0.00 59 1007.5
20260504171506 69 262 1.0 5.0 0.00 0.00 0.00 58 1007.8
20260504081556 50 263 0.0 3.0 0.00 0.00 0.00 69 1010.4
20260504044525 53 249 1.0 5.0 0.00 0.00 0.00 60 1012.3
20260504043022 53 236 0.0 3.0 0.00 0.00 0.00 60 1012.4
20260504041536 53 257 0.0 2.0 0.00 0.00 0.00 60 1012.5
20260504040022 53 278 0.0 6.0 0.00 0.00 0.00 60 1012.7
20260504034516 53 247 0.0 1.0 0.00 0.00 0.00 62 1012.8
20260504033017 52 245 0.0 3.0 0.00 0.00 0.00 63 1012.9
20260504031517 52 277 0.0 0.0 0.00 0.00 0.00 66 1012.9
20260504030015 51 277 0.0 0.0 0.00 0.00 0.00 68 1013.1
20260504024516 50 280 0.0 0.0 0.00 0.00 0.00 74 1013.3
20260504023015 50 280 0.0 0.0 0.00 0.00 0.00 78 1013.4
20260504021515 50 280 0.0 0.0 0.00 0.00 0.00 81 1013.4
20260504020018 50 280 0.0 0.0 0.00 0.00 0.00 80 1013.4
20260504014513 50 280 0.0 0.0 0.00 0.00 0.00 77 1013.3
20260504013013 50 280 0.0 0.0 0.00 0.00 0.00 79 1013.2
20260504011513 50 280 0.0 0.0 0.00 0.00 0.00 78 1013.2
20260504010011 50 280 0.0 0.0 0.00 0.00 0.00 77 1013.4
20260504004513 50 26 0.0 1.0 0.00 0.00 0.00 76 1013.5
20260504003009 50 356 0.0 1.0 0.00 0.00 0.00 74 1013.2
20260504001521 50 356 0.0 1.0 0.00 0.00 0.00 73 1013.3
20260504000009 51 307 0.0 1.0 0.00 0.00 0.00 72 1013.1
20260503234508 51 56 0.0 2.0 0.00 0.00 0.00 71 1012.9
20260503233011 51 37 0.0 2.0 0.00 0.00 0.00 72 1013.1
20260503231505 51 55 0.0 2.0 0.00 0.00 0.00 73 1013.5
20260503230011 51 79 0.0 0.0 0.00 0.00 0.00 72 1014.0
20260503224501 51 46 0.0 6.0 0.00 0.00 0.00 70 1014.3
20260503223101 51 11 0.0 2.0 0.00 0.00 0.00 67 1014.6
20260503221608 51 32 0.0 5.0 0.00 0.00 0.00 69 1014.9
20260503220058 51 27 0.0 3.0 0.00 0.00 0.00 72 1014.8
20260503214557 50 75 0.0 2.0 0.00 0.00 0.00 73 1014.9
20260503213054 50 66 0.0 2.0 0.00 0.00 0.00 71 1015.0
20260503211553 51 68 0.0 2.0 0.00 0.00 0.00 69 1015.6
20260503210052 53 264 0.0 5.0 0.00 0.00 0.00 63 1016.1
20260503204614 56 347 0.0 7.0 0.00 0.00 0.00 53 1016.2
20260503203054 59 265 0.0 3.0 0.00 0.00 0.00 38 1015.7